Location: Bagnara
(41.0500°N, 14.7833°E)
Time: 20:05:41
(UTC+00:00)

SL-16 DEB - Visible Passes

Search period start: 16 January 2022 00:00
Search period end: 26 January 2022 00:00
Orbit: 594 x 601 km, 71.0° (Epoch: 15 January)

Date Brightness Start Highest point End Pass type
(mag) Time Alt. Az. Time Alt. Az. Time Alt. Az.
16 Jan ? 17:54:33 10° SW 17:58:47 50° WNW 18:00:58 26° N visible
17 Jan ? 16:27:04 10° SSE 16:30:39 25° ESE 16:34:13 10° NE visible
17 Jan ? 18:05:25 10° WSW 18:09:15 29° WNW 18:11:53 17° N visible
18 Jan ? 16:36:36 10° S 16:40:44 45° ESE 16:44:54 10° NE visible
18 Jan ? 18:16:38 10° W 18:19:42 18° NW 18:22:36 11° N visible
19 Jan ? 16:46:30 10° SSW 16:50:50 82° ESE 16:55:12 10° NNE visible
19 Jan ? 18:28:39 10° WNW 18:30:09 12° NW 18:31:39 10° NNW visible
20 Jan ? 16:56:39 10° SW 17:00:55 56° WNW 17:05:13 10° NNE visible
21 Jan ? 17:07:05 10° SW 17:11:00 33° WNW 17:14:57 10° N visible
22 Jan ? 17:17:51 10° WSW 17:21:06 20° NW 17:24:22 10° N visible
23 Jan ? 17:29:11 10° WNW 17:31:11 13° NW 17:33:11 10° NNW visible
